Location: Coopersdale
(40.3556°N, 78.9372°W)
Time: 09:47:08
(UTC+00:00)

Envisat - Pass Details

Date: 03 December 2020
Orbit: 764 x 766 km, 98.1° (Epoch: 15 January)

Event Time Altitude Azimuth Distance (km) Brightness Sun altitude
Rises 23:40:25 0° 213° (SSW) 3,219 6.9 -20.6°
Reaches altitude 10° 23:43:48 10° 237° (WSW) 2,299 6.5 -21.2°
Maximum altitude 23:46:32 14° 270° (W) 2,008 6.2 -21.7°
Drops below altitude 10° 23:49:15 10° 303° (WNW) 2,308 6.1 -22.2°
Sets 23:52:41 0° 327° (NNW) 3,241 6.5 -22.8°
